星链-32432 (STARLINK-32432)

导读 | 豆包AI

STARLINK-32432是美国SpaceX公司星链(Starlink)星座的一员,于2024年9月25日发射升空。星链项目旨在构建全球卫星互联网通信系统,为地面偏远地区等提供低成本、高性能的宽带服务。STARLINK-32432运行在近地轨道,和其他星链卫星组网,助力拓展全球网络覆盖,支撑星链不断完善卫星互联网服务能力。

基本信息
目录编号:
61257
目录名称:
STARLINK-32432
国际标识:
2024-175Q
轨道中心:
EARTH
卫星名称:
星链-32432
卫星全名:
星链-32432 (STARLINK-32432)
卫星状态:
在轨 (已飞行583 天)
发射日期:
2024-09-25 UTC
国别 :
美国 (US)
星等 :
--
轨道信息
数据来源 国际轨道数据 AOE轨道数据
星历时间 2026-04-30T21:16:35+0800
13小时前
查看轨道信息
2026-04-28T17:00:00+0800
2天前
查看轨道信息
半长轴 6853.382km 6853.361km
偏心率 0.0001126 0.0001499
轨道倾角 53.161° 53.161°
近地点辐角 83.022° 84.130°
升交点赤经 313.174° 323.292°
平近点角 277.091° 150.309°
近地点 474.473km 474.196km
远地点 476.017km 476.252km
周期 94.106分钟 94.106分钟
每日圈数 15.301902 15.301972
详细信息
固有亮度:
5
最大亮度:
2.5
卫星平台:
Starlink V1.0
覆盖范围:
全球
运营商:
太空探索技术公司
运营商所在国:
美国
制造商(研发单位):
太空探索技术公司
制造商所在国:
美国
使用方式:
暂无
卫星简介
Starlink 计划是 SpaceX 推出的全球卫星互联网项目,通过发射低轨道卫星,为全球尤其是偏远地区提供高速、低延迟的互联网服务。自 2019 年起,Starlink 已部署数千颗卫星,旨在缩小全球数字鸿沟,推动互联网普及。该项目还为军事、航空等行业提供通信支持,带来广泛经济效益。
2D轨道图
3D轨道图
轨道高度分析图
轨道倾角分析图
轨道综合分析图
查看轨道综合分析图